OPS 4682 DEB, 18675

Orbit data source: Space-Track

OPS 4682 DEB, 18675 is space debris in LEO originally from a launch on Sat, 03 Apr 1965 UTC launched from the Air Force Western Test Range (AFWTR). Debris objects in space refer to the collection of defunct objects orbiting the Earth. Examples of debris include non-operational satellites, rocket bodies, and fragments generated from explosions, collisions, or faulty payload assembly.

Loading next visibility...
Identifier
18675, 1965-027AH
Orbit
LEO
Last TLE update
12 hours ago
Origin
Manufacturer
Unknown
Mission
Spacecraft
Bus & Motor
Unknown
Mass
Unknown
Launch date (UTC)
1965-04-03 (60 years ago)
Launch vehicle
Unknown
Launch site
Air Force Western Test Range (AFWTR)
Object type
Payload
Rocket body
Debris
Shape & HBR
Unknown
Radar Cross Section
Small (<0.1 m²)

Expand to show TLE details & history

TLE from 12 hours ago
0 OPS 4682 DEB
1 18675U 65027AH  25181.91827816  .00000000  00000-0 -25050-4 0  9993
2 18675  90.2424 346.6132 0027841 119.4925  33.8682 12.99642677812967
Epoch: 2025-06-30T22:02Z
TLE epoch observation values (Epoch: 2025-06-30T22:02:19.233Z)
Latitude
26.49265°
Longitude
-83.06792°
Altitude
1,249.061 km
Speed
7.241 km/s
True Right ascension
11h 06m 56s
True Declination
26° 21' 52"
Sunlit
Object was in daylight at epoch
Visualization orbit readout
Latitude
-64.05794°
Longitude
-83.67316°
Altitude
1,300.405 km
Speed
7.2 km/s
Apparent Right ascension
09h 58m 34s
Apparent Declination
-53° 44' 35"
Sunlit
Object is in daylight
Visualization observer readout
Local Sidereal Time
21:13:35
Azimuth
205.093° SW
Elevation
-74.22°
Doppler factor
1
Orbital elements
Apogee altitude
1,281.882 km
Perigee altitude
1,239.347 km
Semi-major axis
7,638.751 km
Eccentricity
0.00278
Inclination
90.2424°
RAAN
346.6132°
Arg. of periapsis
119.4925°
True anomaly
Unknown
Mean anomaly
33.8682°
Eccentric anomaly
Unknown
Mean motion
3.25094 °/min
Orbital period
110.74 mins
BSTAR
-0.00002505
Loading maneuver chart data...
Loading SW <> Apogee altitude chart data...
Loading historical data...
Loading historical data...
Loading historical data...
Loading historical data...
Loading historical data...
Loading historical data...
Loading historical data...

OPS 4682 DEB Visibility forecast

Observer location: undefined°, undefined°

Span
Click to sort rows by Start time (UTC) header in descending order
Start Az.
Max El. time (UTC)
Max El. Az.
Max El.
End time (UTC)
End Az.
12 mins2025-07-01 10:18:17.408Z134.017° SE2025-07-01 10:24:17.408Z72.908° E29.397°2025-07-01 10:30:17.408Z16.475° NNE
13 mins2025-07-01 12:08:17.408Z206.852° SW2025-07-01 12:14:17.408Z271.943° WNW34.761°2025-07-01 12:21:17.408Z344.171° N
9 mins2025-07-01 21:55:17.408Z41.652° NE2025-07-01 21:59:17.408Z81.64° E21.159°2025-07-01 22:04:17.408Z126.459° SE
13 mins2025-07-01 23:44:17.408Z353.675° N2025-07-01 23:50:17.408Z270.867° WNW41.894°2025-07-01 23:57:17.408Z198.638° SSW
|